This demonstration page uses our WeatherBlox Daily Observations layout. Learn more.

40.92945, -100.16068

Hourly Observations for August 4, 2019

Temp ( °F °C ) Dew Point ( °F °C ) Humidity (%) Winds ( mph kmh ) Pressure ( in mb ) Visibility ( mi km ) Precip ( " mm )
12:15 am 00:15 Clear 67 19.7 65 18.6 93 93 SSE 6 9 30 1016 10 16.09344 0 0
12:35 am 00:35 Clear 69 20.3 67 19.5 95 95 SSE 6 9 30.03 1017 10 16.09344 0 0
12:55 am 00:55 Clear 69 20.3 67 19.7 96 96 SSE 5 7 30.03 1017 10 16.09344 0 0
1:15 am 01:15 Clear 68 20 67 19.6 98 98 SSE 3 6 30.03 1017 10 16.09344 0 0
1:35 am 01:35 Clear 68 20.1 68 19.8 98 98 SSE 3 6 30.03 1017 7 11.265408 0 0
1:55 am 01:55 Clear 68 20 67 19.7 98 98 SSE 6 9 30.03 1017 10 16.09344 0 0
2:15 am 02:15 Clear 69 20.5 68 20.1 98 98 SSE 7 11 30.03 1017 10 16.09344 0 0
2:35 am 02:35 Clear 69 20.5 68 20.1 98 98 SE 5 7 30.03 1017 7 11.265408 0 0
2:55 am 02:55 Clear 69 20.3 68 20 98 98 SSE 6 9 30.03 1017 7 11.265408 0 0
3:15 am 03:15 Clear 68 19.8 67 19.6 99 99 S 6 9 30.03 1017 7 11.265408 0 0
3:35 am 03:35 Clear 68 20.1 67 19.7 98 98 S 5 7 30 1016 7 11.265408 0 0
3:55 am 03:55 Clear 68 20 67 19.6 98 98 S 3 6 30.03 1017 7 11.265408 0 0
4:15 am 04:15 Clear 68 19.8 67 19.5 98 98 S 5 7 30 1016 7 11.265408 0 0
4:35 am 04:35 Clear 68 19.8 67 19.4 98 98 S 3 6 30 1016 10 16.09344 0 0
4:55 am 04:55 Clear 67 19.6 67 19.2 98 98 Calm 30 1016 10 16.09344 0 0
5:15 am 05:15 Clear 67 19.7 67 19.3 98 98 S 3 6 30 1016 10 16.09344 0 0
5:35 am 05:35 Clear 67 19.6 67 19.3 98 98 SSE 3 6 30 1016 7 11.265408 0 0
5:55 am 05:55 Clear 66 18.8 65 18.6 99 99 Calm 30.03 1017 7 11.265408 0 0
6:15 am 06:15 Clear 66 18.9 66 18.9 100 100 SE 3 6 30 1016 7 11.265408 0 0
6:35 am 06:35 Clear with Mist and Fog 66 19.1 66 19 99 99 SSE 3 6 30 1016 5 8.04672 0 0
6:55 am 06:55 Sunny with Mist and Fog 65 18.5 65 18.3 99 99 Calm 30 1016 3 4.828032 0 0
7:15 am 07:15 Sunny with Mist and Fog 64 17.5 64 17.5 100 100 Calm 30 1016 2 3.218688 0 0
7:35 am 07:35 Sunny with Mist and Fog 65 18.1 65 18.1 100 100 Calm 30 1016 2 3.218688 0 0
7:55 am 07:55 Sunny with Mist and Fog 68 19.8 67 19.5 98 98 Calm 30.03 1017 5 8.04672 0 0
8:15 am 08:15 Sunny 69 20.6 68 20 96 96 SSE 5 7 30.03 1017 7 11.265408 0 0
8:35 am 08:35 Sunny 70 21.2 69 20.4 95 95 SSE 5 7 30 1016 7 11.265408 0 0
8:55 am 08:55 Sunny 71 21.9 69 20.5 92 92 S 3 6 30 1016 10 16.09344 0 0
9:15 am 09:15 Sunny 73 22.6 69 20.7 89 89 S 3 6 29.97 1015 10 16.09344 0 0
9:35 am 09:35 Sunny 74 23.4 70 20.9 86 86 SSW 3 6 29.97 1015 10 16.09344 0 0
9:55 am 09:55 Sunny 75 24.1 70 21 83 83 SSE 3 6 29.94 1014 10 16.09344 0 0
10:15 am 10:15 Sunny 77 24.8 70 21.2 80 80 S 3 6 29.94 1014 10 16.09344 0 0
10:35 am 10:35 Sunny 78 25.7 71 21.4 77 77 S 6 9 29.94 1014 10 16.09344 0 0
10:55 am 10:55 Sunny 80 26.9 71 21.6 73 73 S 6 9 29.97 1015 10 16.09344 0 0
11:15 am 11:15 Sunny 81 27.3 71 21.6 71 71 S 8 13 29.97 1015 10 16.09344 0 0
11:35 am 11:35 Sunny 82 27.7 70 21.3 68 68 S 6 9 29.97 1015 10 16.09344 0 0
11:55 am 11:55 Sunny 83 28.5 69 20.7 63 63 S 9 15 29.94 1014 10 16.09344 0 0
12:15 pm 12:15 Sunny 84 29.1 67 19.7 57 57 SSW 9 15 29.91 1013 10 16.09344 0 0
12:35 pm 12:35 Sunny 85 29.7 68 19.9 56 56 SW 10 17 29.91 1013 10 16.09344 0 0
12:55 pm 12:55 Sunny 86 29.9 67 19.3 53 53 S 8 13 29.91 1013 10 16.09344 0 0
1:15 pm 13:15 Sunny 86 30.1 65 18.3 49 49 SSW 7 11 29.91 1013 10 16.09344 0 0
1:35 pm 13:35 Sunny 87 30.5 66 19 50 50 S 6 9 29.91 1013 10 16.09344 0 0
1:55 pm 13:55 Sunny 88 31.1 66 18.9 48 48 SSW 9 15 29.85 1011 10 16.09344 0 0
2:15 pm 14:15 Sunny 88 31.2 67 19.4 49 49 SSE 9 15 29.85 1011 10 16.09344 0 0
2:35 pm 14:35 Sunny 88 31.3 67 19.6 50 50 S 8 13 29.85 1011 10 16.09344 0 0
2:55 pm 14:55 Sunny 89 31.4 67 19.6 50 50 SSE 10 17 29.85 1011 10 16.09344 0 0
3:15 pm 15:15 Sunny 88 31.3 67 19.5 49 49 SSE 10 17 29.85 1011 10 16.09344 0 0
3:35 pm 15:35 Sunny 89 31.6 68 19.9 50 50 SSE 9 15 29.85 1011 10 16.09344 0 0
3:55 pm 15:55 Sunny 89 31.4 68 19.8 50 50 SE 8 13 29.85 1011 10 16.09344 0 0
4:15 pm 16:15 Sunny 89 31.8 68 20.1 50 50 S 8 13 29.85 1011 10 16.09344 0 0
4:35 pm 16:35 Sunny 89 31.7 68 20.1 50 50 SSE 9 15 29.85 1011 10 16.09344 0 0
4:55 pm 16:55 Sunny 89 31.6 67 19.3 48 48 SSE 9 15 29.85 1011 10 16.09344 0 0
5:15 pm 17:15 Sunny 89 31.7 66 19 47 47 SSE 10 17 29.85 1011 10 16.09344 0 0
5:35 pm 17:35 Sunny 88 31.3 68 19.8 50 50 SSE 13 20 29.83 1010 10 16.09344 0 0
5:55 pm 17:55 Sunny 89 31.4 68 20 51 51 SSE 14 22 29.83 1010 10 16.09344 0 0
6:15 pm 18:15 Sunny 88 31 66 19 49 49 SE 12 19 29.83 1010 10 16.09344 0 0
6:35 pm 18:35 Sunny 87 30.5 66 18.7 49 49 SE 9 15 29.88 1012 10 16.09344 0 0
6:55 pm 18:55 Hazy 86 29.8 64 18 49 49 SE 9 15 29.88 1012 5 8.04672 0 0
7:15 pm 19:15 Sunny 85 29.2 66 19 54 54 SE 8 13 29.88 1012 10 16.09344 0 0
7:35 pm 19:35 Sunny 83 28.6 67 19.4 58 58 ESE 8 13 29.88 1012 10 16.09344 0 0
7:55 pm 19:55 Sunny 82 28 67 19.7 61 61 ESE 9 15 29.88 1012 10 16.09344 0 0
8:15 pm 20:15 Sunny 81 27.1 68 20.1 66 66 E 7 11 29.91 1013 10 16.09344 0 0
8:35 pm 20:35 Sunny 80 26.7 69 20.4 68 68 E 8 13 29.91 1013 10 16.09344 0 0
8:55 pm 20:55 Clear 78 25.6 69 20.7 74 74 E 8 13 29.91 1013 10 16.09344 0 0
9:15 pm 21:15 Clear 76 24.2 70 21 82 82 E 7 11 29.91 1013 10 16.09344 0 0
9:35 pm 21:35 Clear 76 24.2 70 21.2 83 83 E 7 11 29.94 1014 10 16.09344 0 0
9:55 pm 21:55 Clear 76 24.7 70 21.2 81 81 E 8 13 29.94 1014 10 16.09344 0 0
10:15 pm 22:15 Clear 75 24 70 21.3 85 85 E 6 9 30 1016 10 16.09344 0 0
10:35 pm 22:35 Clear 76 24.4 70 21.2 82 82 E 7 11 29.97 1015 10 16.09344 0 0
10:55 pm 22:55 Clear 77 24.8 70 21.3 81 81 ESE 5 7 29.97 1015 10 16.09344 0 0
11:15 pm 23:15 Partly Cloudy 75 23.9 71 21.5 86 86 Calm 30 1016 10 16.09344 0 0
11:35 pm 23:35 Partly Cloudy 75 23.9 70 21.3 85 85 SSW 5 7 29.97 1015 10 16.09344 0 0
11:55 pm 23:55 Partly Cloudy with Light Rain 74 23.1 71 21.8 92 92 S 3 6 29.94 1014 10 16.09344 0 0

Powered by AerisWeather